Regional Weather Roundup
Issued by NWS Newport/Morehead, NC

Current Version | Previous Version | Text Only | Print | Product List | Glossary On
Versions: 1 2 3 4 5 6 7 8 9 10 11 12 13 14 15 16 17 18 19 20 21 22 23 24 25 26 27 28 29 30 31 32 33 34 35 36 37 38 39 40 41 42 43 44 45 46 47 48 49 50
000
ASUS42 KMHX 300613
RWRMHX
WEATHER ROUNDUP FOR EASTERN NORTH CAROLINA
NATIONAL WEATHER SERVICE NEWPORT/MOREHEAD CITY NC
200 AM EDT MON MAY 30 2016

NOTE: "FAIR" INDICATES FEW OR NO CLOUDS BELOW 12,000 FEET
WITH NO SIGNIFICANT WEATHER AND/OR OBSTRUCTIONS TO VISIBILITY

NCZ015>017-031-032-045>047-102-103-300700-
NORTH COAST

CITY           SKY/WX    TMP DP  RH WIND       PRES   REMARKS
EDENTON        CLOUDY   N/A N/A N/A SE3       30.03F
ELIZABETH CITY CLOUDY    74  72  93 SE5       30.03F
KITTY HAWK     CLOUDY    73  72  94 SE3       30.02F
MANTEO         NOT AVBL

$$

NCZ045>047-081-094-103-104-300700-
CENTRAL COAST

CITY           SKY/WX    TMP DP  RH WIND       PRES   REMARKS
FRISCO         LGT RAIN  74  72  93 S9G18     30.04S

$$

NCZ095-097-098-100-101-300700-
SOUTHERN COAST

CITY           SKY/WX    TMP DP  RH WIND       PRES   REMARKS
BEAUFORT       CLOUDY    75  72  90 SE7       30.01F
CEDAR ISLAND   NOT AVBL
JACKSONVILLE   PTCLDY    75  72  90 SE6       29.99F
PINEY ISLAND   CLOUDY   N/A N/A N/A SE6       30.01
WILMINGTON     LGT RAIN  73  72  96 NE3       29.98F


$$

NCZ011>013-027>030-043-044-078>080-089-090>093-098-300700-
COASTAL PLAIN

CITY           SKY/WX    TMP DP  RH WIND       PRES   REMARKS
AHOSKIE        CLOUDY    71  70  98 CALM      30.02F FOG
CLINTON        MOCLDY    72  72 100 CALM      29.99F
ELIZABETHTOWN  PTCLDY    71  71 100 CALM      29.98F
GOLDSBORO      NOT AVBL
GREENVILLE     CLOUDY    72  72 100 CALM      30.03F
HAVELOCK       MOCLDY    74  71  91 SE8       30.02S
KENANSVILLE    CLOUDY    72  71  98 CALM      30.00F FOG
KINSTON        MOCLDY    73  71  95 CALM      30.01F
NEW BERN       MOCLDY    75  71  87 SE6       30.01F
RICHLANDS      PTCLDY    72  72 100 E5        30.00F
ROCKY MOUNT    MOCLDY    70  70 100 CALM      30.01F
WASHINGTON     CLOUDY    72  71  96 E3        30.01F
WHITEVILLE     CLOUDY    71  69  96 CALM      29.97S FOG

$$

AMZ130-135-150-152-154-156-158-170-250-252-270-ANZ085-086-088-633-658-670-300700-
MARINE OBSERVATIONS

STATION/POSITION TIME  TEMP    WIND        PRES    WAVE   SWELL
                       AIR SEA DIR/SP/G            HT/PER HT/PER
                 (UTC) (F)     (DEG/KT/KT) (MB)    (FT/S) (FT/S)
CHESAPEAKE LIGHT 0600   71     160/ 16/ 16 1017.4
64 E VA BEACH    0550   69 64  170/ 12/ 12 1017.4    5/ 7   5/ 7
DUCK             0500   66 59  150/ 11/ 12 1016.6
2 E DUCK         0511      63                N/A     3/ 7
OREGON INLET     0500   74 78  150/  8/ 13 1017.4
13E OREGON INLT  0600      68                N/A     5/ 6   5/ 6
HATTERAS CG      0500   76 77  160/  6/  9 1016.8
DIAMOND BUOY     0550   77 81  160/ 16/ 19 1016.6    6/ 8   3/ 8
CAPE LOOKOUT     0600   76     160/ 10/ 12 1015.7
BEAUFORT LAB     0500   75 76  150/  6/  7 1015.8
30 SE NEW RVR IN 0525      75                N/A     5/ 6
27 SE WRIGHTSVLE 0508   78 76  170/ 14/ 19 1015.5
5 SE WRIGHTSVLE  0508   76 76  140/  4/  8 1015.9
225 S CAPE HAT   0550   75 76  130/ 14/ 16 1017.2    4/ 8   3/ 8
41 SE CHARLESTON 0550   73 77  200/ 17/ 21 1012.6    6/ 7   3/12

$$




USA.gov is the U.S. government's official web portal to all federal, state and local government web resources and services.